Find USA 81

NORAD ID: 21949 Int'l Des: 1992-023 Owner: NRO Country: US operational
LEOCIRCULARPOLAR

Live-Position

3D-Globus wird geladen...

Über USA 81

Beschreibung wird geladen...

Nächste Überflüge

Passes for default location (London). Set your location on the main map for personalized predictions.

Höhenverlauf

Loading altitude history...

Zweizeiliger Elementsatz

1 21949U 92023A 26104.98466634 .00000133 00000-0 41703-4 0 9996
2 21949 85.0033 110.4901 0001241 83.9113 276.2221 14.32379862 99987
Epoch: 14. Apr. 2026 • Age: 7 hours

Aktueller Status

Höhe 786.0 km
Geschwindigkeit 7.46 km/s
Subsatellitenpunkt 12.38°N, 21.01°W
Startdatum 25. Apr. 1992
Alter 33.9 years
Typ military

Technische Details

Klassifizierung Payload
Masse 1450.00 kg
Trockenmasse 1200.00 kg
Gesamtmasse 1450.00 kg
Länge 0.50 m
Durchmesser 1.00 m
Spannweite 10.00 m
Form Cyl + Ant
Hersteller LMSC/MOTO
Bus-Typ NRO-T2
Phasenstatus In Orbit
Besitzer/Staat NRO/US

Most Searched